H1 CPF 2 NER 2021 12 14 9 348 01 glonass127 H2 1106403 9127 37869 2021 12 14 0 0 0 2021 12 17 23 45 0 900 1 1 0 0 0 1 H9 10 0 59562 0.00000 0 11961837.551 -2870903.143 -22300874.577 10 0 59562 900.00000 0 13937004.214 -1027600.858 -21297150.856 10 0 59562 1800.00000 0 15926192.735 570798.456 -19878104.222 10 0 59562 2700.00000 0 17865643.232 1902313.673 -18071606.746 10 0 59562 3600.00000 0 19690349.569 2957518.774 -15913071.894 10 0 59562 4500.00000 0 21336707.562 3739671.118 -13444742.709 10 0 59562 5400.00000 0 22745117.795 4264299.034 -10714847.750 10 0 59562 6300.00000 0 23862433.516 4558269.417 -7776642.766 10 0 59562 7200.00000 0 24644151.043 4658377.887 -4687358.330 10 0 59562 8100.00000 0 25056251.580 4609524.148 -1507075.216 10 0 59562 9000.00000 0 25076618.490 4462552.261 1702449.616 10 0 59562 9900.00000 0 24695972.326 4271849.028 4878982.831 10 0 59562 10800.00000 0 23918286.441 4092803.283 7961016.867 10 0 59562 11700.00000 0 22760667.830 3979233.879 10888951.348 10 0 59562 12600.00000 0 21252710.059 3980894.682 13606231.595 10 0 59562 13500.00000 0 19435346.834 4141160.952 16060423.449 10 0 59562 14400.00000 0 17359254.903 4494993.335 18204205.315 10 0 59562 15300.00000 0 15082873.090 5067263.653 19996260.135 10 0 59562 16200.00000 0 12670119.324 5871511.529 21402052.200 10 0 59562 17100.00000 0 10187899.188 6909183.055 22394475.867 10 0 59562 18000.00000 0 7703507.588 8169382.976 22954365.446 10 0 59562 18900.00000 0 5282028.914 9629151.128 23070857.895 10 0 59562 19800.00000 0 2983840.907 11254252.735 22741602.190 10 0 59562 20700.00000 0 862323.269 13000451.371 21972811.540 10 0 59562 21600.00000 0 -1038136.206 14815213.988 20779157.009 10 0 59562 22500.00000 0 -2683756.988 16639779.701 19183503.429 10 0 59562 23400.00000 0 -4052536.500 18411508.901 17216491.037 10 0 59562 24300.00000 0 -5134927.862 20066417.336 14915968.758 10 0 59562 25200.00000 0 -5933996.162 21541791.527 12326287.732 10 0 59562 26100.00000 0 -6465045.840 22778777.552 9497466.393 10 0 59562 27000.00000 0 -6754733.677 23724835.379 6484241.090 10 0 59562 27900.00000 0 -6839703.345 24335955.499 3345018.841 10 0 59562 28800.00000 0 -6764797.821 24578543.491 140751.390 10 0 59562 29700.00000 0 -6580924.253 24430891.320 -3066248.174 10 0 59562 30600.00000 0 -6342661.289 23884170.925 -6213523.149 10 0 59562 31500.00000 0 -6105710.449 22942905.469 -9239700.775 10 0 59562 32400.00000 0 -5924300.646 21624895.690 -12085704.466 10 0 59562 33300.00000 0 -5848657.541 19960601.992 -14695925.422 10 0 59562 34200.00000 0 -5922647.251 17992006.415 -17019328.778 10 0 59562 35100.00000 0 -6181696.794 15771001.150 -19010470.784 10 0 59562 36000.00000 0 -6651081.989 13357370.813 -20630405.291 10 0 59562 36900.00000 0 -7344657.748 10816453.441 -21847460.194 10 0 59562 37800.00000 0 -8264086.559 8216579.077 -22637867.436 10 0 59562 38700.00000 0 -9398599.391 5626394.330 -22986233.433 10 0 59562 39600.00000 0 -10725300.046 3112186.237 -22885840.299 10 0 59562 40500.00000 0 -12210000.482 735318.412 -22338772.056 10 0 59562 41400.00000 0 -13808551.643 -1450112.617 -21355863.796 10 0 59562 42300.00000 0 -15468612.933 -3399302.680 -19956475.570 10 0 59562 43200.00000 0 -17131784.731 -5078362.807 -18168096.534 10 0 59562 44100.00000 0 -18736012.935 -6465473.085 -16025788.336 10 0 59562 45000.00000 0 -20218163.002 -7551521.282 -13571480.153 10 0 59562 45900.00000 0 -21516654.180 -8340202.243 -10853130.633 10 0 59562 46800.00000 0 -22574042.405 -8847577.103 -7923774.661 10 0 59562 47700.00000 0 -23339442.962 -9101114.253 -4840475.055 10 0 59562 48600.00000 0 -23770691.399 -9138255.853 -1663200.899 10 0 59562 49500.00000 0 -23836152.715 -9004573.371 1546344.637 10 0 59562 50400.00000 0 -23516104.118 -8751592.488 4725923.423 10 0 59562 51300.00000 0 -22803635.027 -8434380.978 7813964.949 10 0 59562 52200.00000 0 -21705028.327 -8109002.404 10750749.271 10 0 59562 53100.00000 0 -20239608.717 -7829943.209 13479548.065 10 0 59562 54000.00000 0 -18439065.918 -7647621.178 15947702.979 10 0 59562 54900.00000 0 -16346281.960 -7606079.081 18107622.067 10 0 59562 55800.00000 0 -14013711.807 -7740959.054 19917676.961 10 0 59562 56700.00000 0 -11501384.271 -8077841.253 21342985.559 10 0 59562 57600.00000 0 -8874605.158 -8631015.142 22356067.223 10 0 59562 58500.00000 0 -6201456.160 -9402733.923 22937359.631 10 0 59562 59400.00000 0 -3550190.893 -10382983.032 23075588.809 10 0 59562 60300.00000 0 -986633.256 -11549772.819 22767986.106 10 0 59562 61200.00000 0 1428316.700 -12869944.397 22020348.156 10 0 59562 62100.00000 0 3640968.609 -14300456.903 20846938.268 10 0 59562 63000.00000 0 5606826.657 -15790104.880 19270230.009 10 0 59562 63900.00000 0 7292192.457 -17281596.687 17320496.276 10 0 59562 64800.00000 0 8675320.175 -18713909.776 15035249.659 10 0 59562 65700.00000 0 9747075.819 -20024826.665 12458542.549 10 0 59562 66600.00000 0 10511072.606 -21153547.160 9640138.189 10 0 59562 67500.00000 0 10983275.740 -22043268.271 6634566.508 10 0 59562 68400.00000 0 11191091.906 -22643623.581 3500081.231 10 0 59562 69300.00000 0 11171980.445 -22912878.629 297537.291 10 0 59562 70200.00000 0 10971643.677 -22819788.206 -2910790.263 10 0 59562 71100.00000 0 10641872.145 -22345034.921 -6062422.901 10 0 59562 72000.00000 0 10238135.822 -21482185.594 -9095906.276 10 0 59562 72900.00000 0 9817023.867 -20238122.179 -11952023.822 10 0 59562 73800.00000 0 9433642.674 -18632926.181 -14574970.958 10 0 59562 74700.00000 0 9139084.252 -16699219.064 -16913465.005 10 0 59562 75600.00000 0 8978074.465 -14480984.522 -18921767.254 10 0 59562 76500.00000 0 8986903.103 -12031920.997 -20560595.335 10 0 59562 77400.00000 0 9191725.786 -9413393.279 -21797906.420 10 0 59562 78300.00000 0 9607311.583 -6692069.314 -22609534.718 10 0 59562 79200.00000 0 10236290.920 -3937341.991 -22979669.940 10 0 59562 80100.00000 0 11068936.554 -1218644.865 -22901166.965 10 0 59562 81000.00000 0 12083487.270 1397224.834 -22375680.670 10 0 59562 81900.00000 0 13247000.381 3848663.232 -21413623.723 10 0 59562 82800.00000 0 14516696.291 6081589.478 -20033948.918 10 0 59562 83700.00000 0 15841737.200 8051450.940 -18263761.381 10 0 59562 84600.00000 0 17165363.519 9724820.993 -16137769.508 10 0 59562 85500.00000 0 18427296.381 11080524.130 -13697586.830 10 0 59563 0.00000 0 19566303.493 12110243.623 -10990900.255 10 0 59563 900.00000 0 20522819.675 12818589.674 -8070520.934 10 0 59563 1800.00000 0 21241509.483 13222627.164 -4993341.521 10 0 59563 2700.00000 0 21673665.843 13350888.191 -1819216.579 10 0 59563 3600.00000 0 21779342.569 13241912.778 1390207.458 10 0 59563 4500.00000 0 21529132.540 12942382.750 4572690.623 10 0 59563 5400.00000 0 20905518.012 12504929.611 7666602.344 10 0 59563 6300.00000 0 19903737.885 11985710.372 10612105.841 10 0 59563 7200.00000 0 18532137.159 11441854.143 13352301.682 10 0 59563 8100.00000 0 16811985.340 10928886.951 15834309.614 10 0 59563 9000.00000 0 14776772.375 10498242.280 18010269.396 10 0 59563 9900.00000 0 12471011.961 10194960.642 19838243.142 10 0 59563 10800.00000 0 9948601.805 10055673.109 21283003.900 10 0 59563 11700.00000 0 7270807.970 10106951.698 22316697.310 10 0 59563 12600.00000 0 4503955.393 10364094.301 22919365.400 10 0 59563 13500.00000 0 1716918.021 10830394.052 23079323.923 10 0 59563 14400.00000 0 -1021490.155 11496923.449 22793386.889 10 0 59563 15300.00000 0 -3645117.834 12342842.715 22066934.243 10 0 59563 16200.00000 0 -6092967.910 13336220.774 20913820.989 10 0 59563 17100.00000 0 -8311476.904 14435336.400 19356128.441 10 0 59563 18000.00000 0 -10256489.523 15590407.475 17423760.742 10 0 59563 18900.00000 0 -11894847.537 16745678.488 15153892.363 10 0 59563 19800.00000 0 -13205527.266 17841781.273 12590274.846 10 0 59563 20700.00000 0 -14180277.890 18818271.948 9782413.911 10 0 59563 21600.00000 0 -14823733.097 19616238.896 6784630.567 10 0 59563 22500.00000 0 -15152990.085 20180872.624 3655022.634 10 0 59563 23400.00000 0 -15196672.202 20463888.894 454345.559 10 0 59563 24300.00000 0 -14993513.347 20425701.690 -2755166.378 10 0 59563 25200.00000 0 -14590522.853 20037252.229 -5911015.549 10 0 59563 26100.00000 0 -14040807.863 19281414.148 -8951668.736 10 0 59563 27000.00000 0 -13401145.449 18153912.517 -11817772.021 10 0 59563 27900.00000 0 -12729408.045 16663714.785 -14453327.542 10 0 59563 28800.00000 0 -12081952.571 14832874.381 -16806807.131 10 0 59563 29700.00000 0 -11511085.705 12695831.135 -18832179.202 10 0 59563 30600.00000 0 -11062714.703 10298196.214 -20489826.977 10 0 59563 31500.00000 0 -10774285.382 7695071.638 -21747338.422 10 0 59563 32400.00000 0 -10673096.433 4948974.583 -22580151.193 10 0 59563 33300.00000 0 -10775062.931 2127453.731 -22972039.136 10 0 59563 34200.00000 0 -11083982.300 -699501.740 -22915430.343 10 0 59563 35100.00000 0 -11591334.166 -3462151.221 -22411550.585 10 0 59563 36000.00000 0 -12276622.266 -6093676.505 -21470389.701 10 0 59563 36900.00000 0 -13108243.171 -8532727.921 -20110492.366 10 0 59563 37800.00000 0 -14044843.778 -10725736.228 -18358578.383 10 0 59563 38700.00000 0 -15037108.675 -12628894.124 -16249001.192 10 0 59563 39600.00000 0 -16029900.092 -14209725.566 -13823056.644 10 0 59563 40500.00000 0 -16964658.379 -15448179.134 -11128157.101 10 0 59563 41400.00000 0 -17781960.181 -16337202.186 -8216888.481 10 0 59563 42300.00000 0 -18424125.203 -16882774.656 -5145970.221 10 0 59563 43200.00000 0 -18837760.955 -17103404.470 -1975139.712 10 0 59563 44100.00000 0 -18976138.087 -17029109.092 1234016.014 10 0 59563 45000.00000 0 -18801296.666 -16699929.176 4419257.838 10 0 59563 45900.00000 0 -18285795.668 -16164039.520 7518897.798 10 0 59563 46800.00000 0 -17414033.356 -15475538.831 10472984.910 10 0 59563 47700.00000 0 -16183084.531 -14692012.475 13224451.189 10 0 59563 48600.00000 0 -14603020.901 -13871971.085 15720196.905 10 0 59563 49500.00000 0 -12696702.159 -13072272.179 17912095.733 10 0 59563 50400.00000 0 -10499047.128 -12345631.945 19757902.226 10 0 59563 51300.00000 0 -8055815.231 -11738329.900 21222046.205 10 0 59563 52200.00000 0 -5421948.160 -11288200.783 22276300.847 10 0 59563 53100.00000 0 -2659539.196 -11022995.927 22900313.399 10 0 59563 54000.00000 0 164487.794 -10959181.173 23081989.823 10 0 59563 54900.00000 0 2980896.146 -11101220.639 22817726.912 10 0 59563 55800.00000 0 5720749.494 -11441376.010 22112487.690 10 0 59563 56700.00000 0 8318014.909 -11960030.261 20979718.325 10 0 59563 57600.00000 0 10712050.875 -12626523.498 19441107.046 10 0 59563 58500.00000 0 12849879.021 -13400467.763 17526188.133 10 0 59563 59400.00000 0 14688146.820 -14233487.924 15271796.533 10 0 59563 60300.00000 0 16194700.375 -15071317.954 12721381.242 10 0 59563 61200.00000 0 17349701.669 -15856166.681 9924188.427 10 0 59563 62100.00000 0 18146242.931 -16529255.146 6934327.850 10 0 59563 63000.00000 0 18590431.228 -17033419.676 3809738.795 10 0 59563 63900.00000 0 18700938.145 -17315670.986 611074.371 10 0 59563 64800.00000 0 18508032.002 -17329600.455 -2599474.911 10 0 59563 65700.00000 0 18052132.020 -17037530.231 -5759395.389 10 0 59563 66600.00000 0 17381944.493 -16412313.884 -8807077.983 10 0 59563 67500.00000 0 16552259.398 -15438708.562 -11683034.345 10 0 59563 68400.00000 0 15621500.864 -14114257.522 -14331076.062 10 0 59563 69300.00000 0 14649136.077 -12449642.652 -16699431.978 10 0 59563 70200.00000 0 13693053.695 -10468489.363 -18741779.867 10 0 59563 71100.00000 0 12807024.481 -8206629.709 -20418170.467 10 0 59563 72000.00000 0 12038353.520 -5710853.256 -21695824.088 10 0 59563 72900.00000 0 11425825.102 -3037197.227 -22549782.997 10 0 59563 73800.00000 0 10998028.662 -248847.445 -22963405.895 10 0 59563 74700.00000 0 10772137.527 2586261.554 -22928694.369 10 0 59563 75600.00000 0 10753192.448 5398046.098 -22446444.917 10 0 59563 76500.00000 0 10933919.922 8116963.082 -21526223.965 10 0 59563 77400.00000 0 11295092.087 10676676.450 -20186167.093 10 0 59563 78300.00000 0 11806411.543 13016588.628 -18452607.437 10 0 59563 79200.00000 0 12427881.900 15084131.046 -16359541.803 10 0 59563 80100.00000 0 13111604.062 16836718.589 -13947946.368 10 0 59563 81000.00000 0 13803920.283 18243287.526 -11264956.918 10 0 59563 81900.00000 0 14447813.448 19285354.556 -8362931.101 10 0 59563 82800.00000 0 14985458.606 19957555.092 -5298412.600 10 0 59563 83700.00000 0 15360817.845 20267641.282 -2131018.715 10 0 59563 84600.00000 0 15522168.383 20235943.039 1077725.935 10 0 59563 85500.00000 0 15424457.180 19894317.880 4265586.062 10 0 59564 0.00000 0 15031383.425 19284636.651 7370818.922 10 0 59564 900.00000 0 14317121.872 18456870.710 10333362.594 10 0 59564 1800.00000 0 13267616.418 17466863.437 13095982.722 10 0 59564 2700.00000 0 11881390.134 16373879.342 15605362.308 10 0 59564 3600.00000 0 10169839.373 15238034.314 17813110.884 10 0 59564 4500.00000 0 8157000.202 14117713.658 19676677.095 10 0 59564 5400.00000 0 5878797.024 13067084.636 21160148.916 10 0 59564 6300.00000 0 3381804.112 12133805.724 22234928.160 10 0 59564 7200.00000 0 721570.301 11357026.343 22880268.094 10 0 59564 8100.00000 0 -2039425.596 10765758.748 23083665.355 10 0 59564 9000.00000 0 -4834106.414 10377688.519 22841099.616 10 0 59564 9900.00000 0 -7593321.502 10198472.404 22157116.685 10 0 59564 10800.00000 0 -10248463.225 10221552.596 21044753.149 10 0 59564 11700.00000 0 -12734069.586 10428495.722 19525302.977 10 0 59564 12600.00000 0 -14990307.352 10789843.536 17627928.987 10 0 59564 13500.00000 0 -16965234.488 11266441.424 15389124.607 10 0 59564 14400.00000 0 -18616748.896 11811191.000 12852033.982 10 0 59564 15300.00000 0 -19914142.465 12371155.194 10065641.198 10 0 59564 16200.00000 0 -20839195.105 12889929.050 7083842.087 10 0 59564 17100.00000 0 -21386761.860 13310177.514 3964414.664 10 0 59564 18000.00000 0 -21564826.862 13576233.649 767906.944 10 0 59564 18900.00000 0 -21394020.136 13636647.106 -2443537.053 10 0 59564 19800.00000 0 -20906615.909 13446573.827 -5607390.306 10 0 59564 20700.00000 0 -20145053.266 12969903.856 -8661970.504 10 0 59564 21600.00000 0 -19160040.744 12181034.509 -11547657.381 10 0 59564 22500.00000 0 -18008324.705 11066210.818 -14208074.371 10 0 59564 23400.00000 0 -16750216.203 9624373.413 -16591209.533 10 0 59564 24300.00000 0 -15446981.907 7867474.972 -18650451.953 10 0 59564 25200.00000 0 -14158210.783 5820249.209 -20345521.525 10 0 59564 26100.00000 0 -12939269.505 3519440.114 -21643272.201 10 0 59564 27000.00000 0 -11838955.779 1012522.446 -22518351.757 10 0 59564 27900.00000 0 -10897450.105 -1644033.503 -22953704.252 10 0 59564 28800.00000 0 -10144653.507 -4386880.071 -22940904.852 10 0 59564 29700.00000 0 -9598981.821 -7148204.132 -22480320.447 10 0 59564 30600.00000 0 -9266667.204 -9858331.081 -21581093.305 10 0 59564 31500.00000 0 -9141595.447 -12448410.993 -20260948.755 10 0 59564 32400.00000 0 -9205684.477 -14853073.968 -18545831.754 10 0 59564 33300.00000 0 -9429786.023 -17012943.262 -16469380.628 10 0 59564 34200.00000 0 -9775070.083 -18876901.143 -14072249.795 10 0 59564 35100.00000 0 -10194831.214 -20404013.459 -11401296.183 10 0 59564 36000.00000 0 -10636637.953 -21565033.782 -8508646.791 10 0 59564 36900.00000 0 -11044732.428 -22343426.103 -5450667.125 10 0 59564 37800.00000 0 -11362577.053 -22735865.790 -2286851.971 10 0 59564 38700.00000 0 -11535439.607 -22752200.744 921338.851 10 0 59564 39600.00000 0 -11512907.014 -22414877.337 4111676.250 10 0 59564 40500.00000 0 -11251221.854 -21757858.186 7222365.581 10 0 59564 41400.00000 0 -10715343.707 -20825079.677 10193235.165 10 0 59564 42300.00000 0 -9880649.589 -19668515.880 12966887.096 10 0 59564 43200.00000 0 -8734203.148 -18345931.241 15489789.265 10 0 59564 44100.00000 0 -7275540.501 -16918416.531 17713289.081 10 0 59564 45000.00000 0 -5516940.658 -15447810.736 19594531.106 10 0 59564 45900.00000 0 -3483169.596 -13994115.490 21097263.047 10 0 59564 46800.00000 0 -1210708.341 -12613008.278 22192516.631 10 0 59564 47700.00000 0 1253503.752 -11353556.130 22859152.093 10 0 59564 48600.00000 0 3853760.008 -10256223.008 23084257.371 10 0 59564 49500.00000 0 6527643.916 -9351251.991 22863395.297 10 0 59564 50400.00000 0 9208370.463 -8657488.234 22200694.426 10 0 59564 51300.00000 0 11827317.274 -8181690.849 21108781.428 10 0 59564 52200.00000 0 14316643.646 -7918362.255 19608555.374 10 0 59564 53100.00000 0 16611891.361 -7850102.659 17728806.687 10 0 59564 54000.00000 0 18654461.465 -7948475.977 15505686.056 10 0 59564 54900.00000 0 20393865.397 -8175352.480 12982031.226 10 0 59564 55800.00000 0 21789657.180 -8484673.635 10206562.318 10 0 59564 56700.00000 0 22812965.827 -8824566.572 7232958.998 10 0 59564 57600.00000 0 23447562.833 -9139720.518 4118835.449 10 0 59564 58500.00000 0 23690418.426 -9373925.644 924631.736 10 0 59564 59400.00000 0 23551721.338 -9472667.105 -2287557.681 10 0 59564 60300.00000 0 23054359.280 -9385663.690 -5455195.597 10 0 59564 61200.00000 0 22232880.203 -9069242.007 -8516529.634 10 0 59564 62100.00000 0 21131976.806 -8488443.306 -11411810.673 10 0 59564 63000.00000 0 19804557.435 -7618770.876 -14084476.854 10 0 59564 63900.00000 0 18309484.707 -6447500.951 -16482278.045 10 0 59564 64800.00000 0 16709077.833 -4974498.527 -18558316.939 10 0 59564 65700.00000 0 15066485.108 -3212500.731 -20271984.551 10 0 59564 66600.00000 0 13443038.900 -1186853.410 -21589770.082 10 0 59564 67500.00000 0 11895706.224 1065289.830 -22485928.057 10 0 59564 68400.00000 0 10474743.820 3496273.539 -22942988.729 10 0 59564 69300.00000 0 9221657.709 6049696.889 -22952101.255 10 0 59564 70200.00000 0 8167553.750 8662546.814 -22513202.906 10 0 59564 71100.00000 0 7331948.608 11267617.911 -21635011.333 10 0 59564 72000.00000 0 6722090.485 13796116.804 -20334840.745 10 0 59564 72900.00000 0 6332816.747 16180341.141 -18638246.631 10 0 59564 73800.00000 0 6146952.376 18356320.422 -16578507.174 10 0 59564 74700.00000 0 6136229.969 20266307.731 -14195952.994 10 0 59564 75600.00000 0 6262689.683 21861018.352 -11537159.803 10 0 59564 76500.00000 0 6480497.216 23101522.310 -8654021.292 10 0 59564 77400.00000 0 6738100.455 23960712.962 -5602721.895 10 0 59564 78300.00000 0 6980631.416 24424292.170 -2442630.811 10 0 59564 79200.00000 0 7152450.319 24491233.200 764860.112 10 0 59564 80100.00000 0 7199723.268 24173704.669 3957531.141 10 0 59564 81000.00000 0 7072924.317 23496461.527 7073538.522 10 0 59564 81900.00000 0 6729156.596 22495731.141 10052604.267 10 0 59564 82800.00000 0 6134195.437 21217643.287 12837169.276 10 0 59564 83700.00000 0 5264168.573 19716271.261 15373488.698 10 0 59564 84600.00000 0 4106803.951 18051366.750 17612649.878 10 0 59564 85500.00000 0 2662193.889 16285883.029 19511495.051 10 0 59565 0.00000 0 943044.356 14483389.120 21033432.975 10 0 59565 900.00000 0 -1025601.976 12705480.216 22149126.691 10 0 59565 1800.00000 0 -3207155.523 11009292.645 22837044.038 10 0 59565 2700.00000 0 -5554754.081 9445221.341 23083864.679 10 0 59565 3600.00000 0 -8012968.387 8054934.979 22884734.647 10 0 59565 4500.00000 0 -10519871.575 6869768.474 22243364.849 10 0 59565 5400.00000 0 -13009389.435 5909558.467 21171971.190 10 0 59565 6300.00000 0 -15413836.973 5181969.470 19691056.535 10 0 59565 7200.00000 0 -17666538.725 4682338.722 17829037.133 10 0 59565 8100.00000 0 -19704426.346 4394046.772 15621718.738 10 0 59565 9000.00000 0 -21470507.116 4289399.386 13111630.136 10 0 59565 9900.00000 0 -22916101.339 4330985.327 10347224.654 10 0 59565 10800.00000 0 -24002755.276 4473454.476 7381962.787 10 0 59565 11700.00000 0 -24703748.802 4665642.893 4273291.799 10 0 59565 12600.00000 0 -25005133.068 4852956.145 1081540.719 10 0 59565 13500.00000 0 -24906252.632 4979910.616 -2131248.577 10 0 59565 14400.00000 0 -24419727.901 4992724.863 -5302531.632 10 0 59565 15300.00000 0 -23570896.409 4841850.119 -8370488.798 10 0 59565 16200.00000 0 -22396734.676 4484330.818 -11275244.754 10 0 59565 17100.00000 0 -20944304.713 3885892.534 -13960054.802 10 0 59565 18000.00000 0 -19268790.015 3022666.017 -16372432.841 10 0 59565 18900.00000 0 -17431203.869 1882471.244 -18465197.082 10 0 59565 19800.00000 0 -15495867.137 465604.180 -20197411.186 10 0 59565 20700.00000 0 -13527762.955 -1214909.550 -21535200.688 10 0 59565 21600.00000 0 -11589881.060 -3133606.938 -22452427.448 10 0 59565 22500.00000 0 -9740664.904 -5253414.964 -22931207.996 10 0 59565 23400.00000 0 -8031670.187 -7526979.016 -22962265.071 10 0 59565 24300.00000 0 -6505533.982 -9898436.697 -22545105.435 10 0 59565 25200.00000 0 -5194340.001 -12305562.186 -21688020.810 10 0 59565 26100.00000 0 -4118448.205 -14682190.396 -20407912.596 10 0 59565 27000.00000 0 -3285836.702 -16960818.377 -18729944.807 10 0 59565 27900.00000 0 -2691981.602 -19075274.069 -16687033.239 10 0 59565 28800.00000 0 -2320277.444 -20963339.827 -14319182.296 10 0 59565 29700.00000 0 -2142977.499 -22569220.537 -11672683.965 10 0 59565 30600.00000 0 -2122611.226 -23845753.181 -8799196.091 10 0 59565 31500.00000 0 -2213816.079 -24756265.993 -5754719.537 10 0 59565 32400.00000 0 -2365503.584 -25276010.779 -2598495.497 10 0 59565 33300.00000 0 -2523265.941 -25393110.280 608154.463 10 0 59565 34200.00000 0 -2631919.928 -25108983.161 3803022.166 10 0 59565 35100.00000 0 -2638079.744 -24438231.372 6924216.860 10 0 59565 36000.00000 0 -2492650.004 -23407996.994 9911356.247 10 0 59565 36900.00000 0 -2153134.200 -22056817.700 12706721.945 10 0 59565 37800.00000 0 -1585662.267 -20433030.349 15256358.147 10 0 59565 38700.00000 0 -766653.126 -18592790.373 17511093.775 10 0 59565 39600.00000 0 315956.416 -16597789.849 19427470.191 10 0 59565 40500.00000 0 1661967.012 -14512768.768 20968558.667 10 0 59565 41400.00000 0 3258687.083 -12402921.750 22104653.968 10 0 59565 42300.00000 0 5081227.790 -10331306.233 22813832.526 10 0 59565 43200.00000 0 7093311.340 -8356357.507 23082366.101 10 0 59565 44100.00000 0 9248560.586 -6529611.439 22904984.017 10 0 59565 45000.00000 0 11492218.527 -4893727.235 22284979.333 10 0 59565 45900.00000 0 13763228.993 -3480890.485 21234156.733 10 0 59565 46800.00000 0 15996595.033 -2311661.558 19772622.155 10 0 59565 47700.00000 0 18125919.831 -1394316.671 17928416.728 10 0 59565 48600.00000 0 20086027.049 -724709.093 15737000.063 10 0 59565 49500.00000 0 21815553.537 -286656.954 13240590.532 10 0 59565 50400.00000 0 23259407.411 -52842.557 10487372.924 10 0 59565 51300.00000 0 24370989.259 13813.162 7530586.539 10 0 59565 52200.00000 0 25114082.968 -41642.547 4427509.390 10 0 59565 53100.00000 0 25464335.544 -168331.745 1238356.888 10 0 59565 54000.00000 0 25410261.871 -311938.007 -1974884.477 10 0 59565 54900.00000 0 24953729.773 -417252.171 -5149665.916 10 0 59565 55800.00000 0 24109902.515 -430763.130 -8224103.466 10 0 59565 56700.00000 0 22906638.849 -303182.388 -11138198.476 10 0 59565 57600.00000 0 21383374.008 8206.762 -13835026.108 10 0 59565 58500.00000 0 19589527.499 537477.621 -16261866.755 10 0 59565 59400.00000 0 17582504.191 1308356.677 -18371256.323 10 0 59565 60300.00000 0 15425372.907 2332963.478 -20121933.012 10 0 59565 61200.00000 0 13184320.934 3611049.711 -21479660.281 10 0 59565 62100.00000 0 10925992.567 5129771.947 -22417908.628 10 0 59565 63000.00000 0 8714824.790 6864009.336 -22918381.834 10 0 59565 63900.00000 0 6610493.257 8777213.878 -22971376.847 10 0 59565 64800.00000 0 4665576.696 10822757.891 -22575970.175 10 0 59565 65700.00000 0 2923538.128 12945721.803 -21740027.461 10 0 59565 66600.00000 0 1417107.441 15085046.459 -20480036.708 10 0 59565 67500.00000 0 167132.200 17175958.572 -18820769.444 10 0 59565 68400.00000 0 -818056.804 19152566.495 -16794777.629 10 0 59565 69300.00000 0 -1542740.929 20950516.322 -14441737.606 10 0 59565 70200.00000 0 -2023368.900 22509596.226 -11807655.414 10 0 59565 71100.00000 0 -2287593.840 23776179.508 -8943950.518 10 0 59565 72000.00000 0 -2372835.918 24705404.081 -5906437.402 10 0 59565 72900.00000 0 -2324434.412 25262997.844 -2754226.257 10 0 59565 73800.00000 0 -2193469.891 25426674.764 451434.758 10 0 59565 74700.00000 0 -2034350.573 25187044.949 3648352.184 10 0 59565 75600.00000 0 -1902266.230 24548002.734 6774591.369 10 0 59565 76500.00000 0 -1850617.783 23526578.725 9769668.688 10 0 59565 77400.00000 0 -1928530.933 22152264.080 12575709.268 10 0 59565 78300.00000 0 -2178557.990 20465836.996 15138548.906 10 0 59565 79200.00000 0 -2634663.520 18517741.520 17408760.394 10 0 59565 80100.00000 0 -3320577.218 16366086.734 19342586.235 10 0 59565 81000.00000 0 -4248581.906 14074349.306 20902761.809 10 0 59565 81900.00000 0 -5418786.589 11708873.793 22059215.275 10 0 59565 82800.00000 0 -6818914.608 9336272.877 22789632.562 10 0 59565 83700.00000 0 -8424616.087 7020833.140 23079878.217 10 0 59565 84600.00000 0 -10200292.795 4822031.492 22924265.118 10 0 59565 85500.00000 0 -12100402.804 2792262.855 22325668.304 99